Content
SEND FEEDBACK

Daily
Averages
Monthly
Summary
United States of America

CROSBY, NORTH DAKOTA


Home > North America > United States > North Dakota
Elevation: 1959 feet     Latitude: 48 54N     Longitude: 103 18W

WEATHER
 
SELECT A DAY
Number of Records: 89,024;   Date Range: 11/18/10 - 9/29/14
 
SHARE

PRINT THIS DATA

[ ← Previous Day ]
WEATHER ALMANAC - FEBRUARY 13, 2013
[ Next Day → ]
[ °C ]   °F
Weather ElementAverageHighLow
Temperature29.5 °F32 °F (2:55 am)26.6 °F (12:35 am)
Dewpoint27.8 °F32 °F (6:35 pm)23 °F (12:35 am)
Humidity93.3 %100 % (5:55 am)75 % (2:55 am)
Barometer29.65 in29.74 in (11:55 pm)29.55 in (7:35 am)
Wind Speed12.4 mph28.8 mph (8:35 pm)
Wind Gust34.5 mph (8:35 pm)
Weather ElementAverage
Visibility7.8 mi
Wind DirectionW (269.7 °)

Weather ElementTotal
Precipitation2.13 in
Heating Degree Days35.7 (Base 65)
Averaged from 71 records on February 13, 2013
WEATHER CONDITIONS BREAKOUT
WIND DIRECTION BREAKOUT
WEATHER BY HOUR - FEBRUARY 13, 2013
[ °C ]   °F
Local TimeTemperatureDewpointHumidityBarometerVisibilityWind DirectionWind SpeedGust SpeedPrecipitationEventsConditions
12:35 AM26.6 °F23.0 °F86 %29.70 in10.0 miSW (230°)10.4 mphOvercast
12:55 AM28.4 °F24.8 °F86 %29.70 in10.0 miWSW (240°)12.7 mphOvercast
1:15 AM28.4 °F24.8 °F86 %29.69 in10.0 miWSW (240°)16.1 mphMostly Cloudy
1:35 AM28.4 °F24.8 °F86 %29.68 in10.0 miSW (230°)15.0 mphPartly Cloudy
1:55 AM28.4 °F24.8 °F86 %29.67 in10.0 miSW (230°)13.8 mphClear
2:15 AM28.4 °F24.8 °F86 %29.66 in10.0 miSW (220°)9.2 mphScattered Clouds
2:35 AM28.4 °F24.8 °F86 %29.66 in10.0 miSouth (190°)9.2 mphPartly Cloudy
2:55 AM32.0 °F24.8 °F75 %29.65 in10.0 miSW (230°)9.2 mphScattered Clouds
3:15 AM28.4 °F24.8 °F86 %29.64 in10.0 miSSW (200°)8.1 mphScattered Clouds
3:35 AM28.4 °F26.6 °F93 %29.63 in10.0 miSSW (210°)6.9 mphMostly Cloudy
3:55 AM28.4 °F26.6 °F93 %29.62 in10.0 miSSW (200°)8.1 mphOvercast
4:15 AM28.4 °F26.6 °F93 %29.61 in10.0 miSouth (180°)9.2 mphOvercast
4:35 AM28.4 °F26.6 °F93 %29.60 in10.0 miSouth (190°)11.5 mphOvercast
4:55 AM28.4 °F26.6 °F93 %29.59 in3.0 miSouth (190°)10.4 mphOvercast
5:15 AM28.4 °F26.6 °F93 %29.59 in3.0 miSouth (190°)10.4 mphSnowLight Snow
5:35 AM28.4 °F26.6 °F93 %29.58 in2.5 miSSW (200°)10.4 mphSnowLight Snow
5:55 AM28.4 °F28.4 °F100 %29.57 in2.0 miSSW (200°)9.2 mphSnowLight Snow
6:15 AM28.4 °F28.4 °F100 %29.57 in2.5 miSSW (210°)9.2 mphSnowLight Snow
6:35 AM28.4 °F28.4 °F100 %29.56 in2.0 miSSW (210°)9.2 mphSnowLight Snow
6:55 AM28.4 °F28.4 °F100 %29.56 in2.5 miSSW (210°)9.2 mph0.01 inSnowLight Snow
7:15 AM28.4 °F28.4 °F100 %29.56 in1.8 miSW (220°)8.1 mph0.02 inSnowLight Snow
7:35 AM28.4 °F28.4 °F100 %29.55 in1.8 miSW (220°)5.8 mph0.11 inSnowLight Snow
7:55 AM28.4 °F28.4 °F100 %29.56 in9.0 miWest (270°)6.9 mph0.12 inSnowLight Snow
8:15 AM30.2 °F30.2 °F100 %29.56 in10.0 miWest (270°)9.2 mphRainLight Rain
8:35 AM30.2 °F28.4 °F93 %29.56 in10.0 miWest (260°)9.2 mphOvercast
8:55 AM30.2 °F28.4 °F93 %29.56 in10.0 miWest (260°)8.1 mphOvercast
9:15 AM30.2 °F28.4 °F93 %29.57 in10.0 miWest (260°)10.4 mphOvercast
9:35 AM30.2 °F28.4 °F93 %29.57 in10.0 miWest (260°)9.2 mphOvercast
9:55 AM30.2 °F28.4 °F93 %29.57 in10.0 miWest (280°)11.5 mphOvercast
10:15 AM30.2 °F28.4 °F93 %29.57 in10.0 miWNW (290°)12.7 mphOvercast
10:35 AM30.2 °F28.4 °F93 %29.58 in10.0 miNW (310°)17.3 mphOvercast
10:55 AM30.2 °F26.6 °F86 %29.59 in10.0 miNW (310°)15.0 mphOvercast
11:15 AM28.4 °F26.6 °F93 %29.61 in10.0 miNW (320°)15.0 mphOvercast
11:35 AM28.4 °F28.4 °F100 %29.61 in10.0 miNNW (330°)12.7 mphOvercast
11:55 AM28.4 °F28.4 °F100 %29.61 in10.0 miNNW (340°)10.4 mphOvercast
12:15 PM28.4 °F28.4 °F100 %29.62 in10.0 miNNW (330°)9.2 mphOvercast
12:35 PM28.4 °F28.4 °F100 %29.64 in10.0 miNW (320°)9.2 mphOvercast
12:55 PM28.4 °F28.4 °F100 %29.63 in10.0 miNNW (330°)6.9 mphOvercast
1:15 PM28.4 °F26.6 °F93 %29.64 in10.0 miNW (310°)9.2 mphOvercast
1:35 PM30.2 °F28.4 °F93 %29.64 in10.0 miWNW (300°)6.9 mphMostly Cloudy
1:55 PM32.0 °F28.4 °F87 %29.65 in10.0 miNW (320°)9.2 mphMostly Cloudy
2:15 PM30.2 °F28.4 °F93 %29.65 in6.0 miWNW (300°)13.8 mphSnowLight Snow
2:35 PM30.2 °F28.4 °F93 %29.66 in2.0 miWNW (300°)11.5 mph0.07 inSnowLight Snow
2:55 PM30.2 °F28.4 °F93 %29.66 in2.0 miWNW (300°)10.4 mph0.59 inSnowLight Snow
3:15 PM30.2 °F28.4 °F93 %29.67 in7.0 miWNW (300°)11.5 mphSnowLight Snow
3:35 PM30.2 °F28.4 °F93 %29.67 in10.0 miWNW (300°)10.4 mphRainLight Rain
3:55 PM30.2 °F28.4 °F93 %29.68 in8.0 miNW (310°)11.5 mph0.01 inSnowLight Snow
4:15 PM30.2 °F28.4 °F93 %29.69 in6.0 miWNW (300°)11.5 mphSnowLight Snow
4:35 PM30.2 °F28.4 °F93 %29.69 in7.0 miWNW (300°)13.8 mph0.01 inRainLight Rain
4:55 PM30.2 °F28.4 °F93 %29.70 in2.0 miNW (310°)10.4 mph0.04 inSnowLight Snow
5:15 PM30.2 °F30.2 °F100 %29.70 in1.2 miWNW (300°)6.9 mph0.07 inSnowLight Snow
5:35 PM30.2 °F30.2 °F100 %29.71 in2.5 miNW (310°)9.2 mph0.17 inSnowLight Snow
5:55 PM32.0 °F30.2 °F93 %29.71 in4.0 miNW (310°)10.4 mph0.19 inRainLight Rain
6:15 PM32.0 °F30.2 °F93 %29.71 in5.0 miWNW (300°)10.4 mphRainLight Rain
6:35 PM32.0 °F32.0 °F100 %29.71 in6.0 miWNW (300°)10.4 mphOvercast
6:55 PM32.0 °F32.0 °F100 %29.71 in10.0 miNW (310°)9.2 mphOvercast
7:15 PM32.0 °F32.0 °F100 %29.71 in10.0 miWNW (300°)16.1 mphOvercast
7:35 PM32.0 °F32.0 °F100 %29.71 in10.0 miWNW (290°)17.3 mphOvercast
7:55 PM32.0 °F32.0 °F100 %29.71 in10.0 miWNW (290°)12.7 mphOvercast
8:15 PM32.0 °F30.2 °F93 %29.72 in10.0 miWest (280°)13.8 mphMostly Cloudy
8:35 PM32.0 °F28.4 °F87 %29.72 in8.0 miWNW (290°)28.8 mph34.5 mphOvercast
8:55 PM32.0 °F26.6 °F80 %29.72 in10.0 miWest (280°)20.7 mphMostly Cloudy
9:15 PM30.2 °F26.6 °F86 %29.73 in10.0 miWest (280°)23.0 mphRainLight Rain
9:35 PM28.4 °F26.6 °F93 %29.72 in10.0 miWest (280°)20.7 mph31.1 mphOvercast
9:55 PM28.4 °F26.6 °F93 %29.72 in10.0 miWest (280°)21.9 mph28.8 mphOvercast
10:15 PM28.4 °F26.6 °F93 %29.72 in10.0 miWest (280°)23.0 mph29.9 mphOvercast
10:35 PM28.4 °F24.8 °F86 %29.73 in10.0 miWest (280°)20.7 mphOvercast
10:55 PM26.6 °F24.8 °F93 %29.73 in10.0 miWNW (290°)19.6 mphOvercast
11:15 PM28.4 °F24.8 °F86 %29.73 in10.0 miWNW (290°)19.6 mphOvercast
11:35 PM28.4 °F26.6 °F93 %29.73 in1.0 miWNW (290°)23.0 mph29.9 mph0.33 inSnowLight Snow
11:55 PM28.4 °F28.4 °F100 %29.74 in2.5 miWNW (290°)21.9 mph0.39 inSnowLight Snow
Hourly data recorded from KD50, located miles away from Crosby, North Dakota







STORIES FROM OUR PARTNERS